Retour au catalogue

STARLINK-37127

ActifCommunicationsVLEO
NORAD 68236·PAYLOAD·🇺🇸 United States

Lancé Mar 17, 2026 depuis Vandenberg Space Force Base

Loading…

Prochains Passages (prochaines 24 heures)

TLE

FraisSource: CelesTrak SupGP

Époque: Sep 15, 2026, 04:28 UTC

1 68236C 26054E   26258.18659722  .00013935  00000+0  41166-3 0  2584
2 68236  53.1557 126.8872 0001161  85.5359 244.4043 15.34386862    19

Suivez STARLINK-37127 en temps réel avec AllMySat

Download on the App Store